| time (UTC) | temp C | wind direction | speed KPH | gust KPH | rain 1hr cm | rain 24hr cm | rain mn cm | humidity % | barometer mb |
| 20260510104212 | 16 | 98 | 0.0 | 3.2 | 0.00 | 0.00 | 0.00 | 99 | 1018.5 |
| 20260510103708 | 16 | 107 | 3.2 | 3.2 | 0.00 | 0.00 | 0.00 | 99 | 1018.3 |
| 20260510103206 | 16 | 120 | 3.2 | 3.2 | 0.00 | 0.00 | 0.00 | 99 | 1018.3 |
| 20260510102706 | 16 | 127 | 3.2 | 4.8 | 0.00 | 0.00 | 0.00 | 99 | 1018.1 |
| 20260510102202 | 16 | 106 | 3.2 | 4.8 | 0.00 | 0.00 | 0.00 | 99 | 1018.0 |
| 20260510101659 | 16 | 140 | 0.0 | 4.8 | 0.00 | 0.00 | 0.00 | 99 | 1018.1 |
| 20260510101158 | 16 | 117 | 1.6 | 3.2 | 0.00 | 0.00 | 0.00 | 99 | 1017.9 |
| 20260510100653 | 16 | 125 | 3.2 | 3.2 | 0.00 | 0.00 | 0.00 | 99 | 1018.1 |
| 20260510100151 | 16 | 120 | 0.0 | 1.6 | 0.00 | 0.00 | 0.00 | 99 | 1018.1 |
| 20260510095646 | 16 | 105 | 0.0 | 1.6 | 0.00 | 0.00 | 0.00 | 99 | 1018.1 |
| 20260510095141 | 16 | 75 | 0.0 | 1.6 | 0.00 | 0.00 | 0.00 | 99 | 1018.1 |
| 20260510094640 | 16 | 114 | 0.0 | 3.2 | 0.00 | 0.00 | 0.00 | 99 | 1017.8 |
| 20260510094136 | 16 | 114 | 3.2 | 3.2 | 0.00 | 0.00 | 0.00 | 99 | 1017.9 |
| 20260510093632 | 16 | 121 | 3.2 | 4.8 | 0.00 | 0.00 | 0.00 | 99 | 1017.7 |
| 20260510093130 | 16 | 127 | 3.2 | 3.2 | 0.00 | 0.00 | 0.00 | 99 | 1017.8 |
| 20260510092626 | 16 | 131 | 3.2 | 3.2 | 0.00 | 0.00 | 0.00 | 99 | 1017.5 |
| 20260510092121 | 16 | 126 | 0.0 | 3.2 | 0.00 | 0.00 | 0.00 | 99 | 1017.5 |
| 20260510091617 | 16 | 121 | 3.2 | 3.2 | 0.00 | 0.00 | 0.00 | 99 | 1017.4 |
| 20260510091114 | 16 | 142 | 3.2 | 3.2 | 0.00 | 0.00 | 0.00 | 99 | 1017.4 |
| 20260510090611 | 16 | 121 | 3.2 | 4.8 | 0.00 | 0.00 | 0.00 | 99 | 1017.3 |
| 20260510090107 | 16 | 117 | 3.2 | 3.2 | 0.00 | 0.00 | 0.00 | 99 | 1017.2 |
| 20260510085602 | 16 | 127 | 3.2 | 3.2 | 0.00 | 0.00 | 0.00 | 99 | 1016.9 |
| 20260510085058 | 16 | 123 | 3.2 | 4.8 | 0.00 | 0.00 | 0.00 | 99 | 1017.2 |
| 20260510084554 | 16 | 121 | 3.2 | 3.2 | 0.00 | 0.00 | 0.00 | 99 | 1017.2 |
| 20260510084051 | 16 | 130 | 4.8 | 4.8 | 0.00 | 0.00 | 0.00 | 99 | 1017.1 |
| 20260510083548 | 16 | 126 | 1.6 | 3.2 | 0.00 | 0.00 | 0.00 | 99 | 1017.2 |
| 20260510083044 | 16 | 120 | 3.2 | 3.2 | 0.00 | 0.00 | 0.00 | 99 | 1017.2 |
| 20260510082541 | 16 | 120 | 3.2 | 3.2 | 0.00 | 0.00 | 0.00 | 99 | 1017.2 |
| 20260510082036 | 16 | 121 | 3.2 | 4.8 | 0.00 | 0.00 | 0.00 | 99 | 1017.0 |
| 20260510081532 | 16 | 124 | 3.2 | 3.2 | 0.00 | 0.00 | 0.00 | 99 | 1016.9 |
| 20260510081027 | 16 | 105 | 0.0 | 3.2 | 0.00 | 0.00 | 0.00 | 99 | 1016.9 |
| 20260510080526 | 16 | 154 | 0.0 | 3.2 | 0.00 | 0.00 | 0.00 | 99 | 1016.9 |
| 20260510080024 | 16 | 157 | 0.0 | 3.2 | 0.00 | 0.00 | 0.00 | 99 | 1016.8 |
| 20260510075521 | 16 | 132 | 3.2 | 3.2 | 0.00 | 0.00 | 0.00 | 99 | 1017.0 |
| 20260510075017 | 16 | 117 | 3.2 | 3.2 | 0.00 | 0.00 | 0.00 | 99 | 1016.8 |
| 20260510074516 | 16 | 139 | 3.2 | 3.2 | 0.00 | 0.00 | 0.00 | 99 | 1016.6 |
| 20260510074011 | 16 | 99 | 0.0 | 1.6 | 0.00 | 0.00 | 0.00 | 99 | 1016.8 |
| 20260510073507 | 16 | 111 | 0.0 | 0.0 | 0.00 | 0.00 | 0.00 | 99 | 1016.8 |
| 20260510073004 | 17 | 117 | 3.2 | 3.2 | 0.00 | 0.00 | 0.00 | 99 | 1016.8 |
| 20260510072500 | 17 | 145 | 1.6 | 4.8 | 0.00 | 0.00 | 0.00 | 99 | 1016.9 |
| 20260510071956 | 17 | 114 | 1.6 | 3.2 | 0.00 | 0.00 | 0.00 | 99 | 1016.8 |
| 20260510071452 | 17 | 145 | 1.6 | 3.2 | 0.00 | 0.00 | 0.00 | 99 | 1017.0 |
| 20260510070950 | 16 | 120 | 3.2 | 3.2 | 0.00 | 0.00 | 0.00 | 99 | 1016.6 |
| 20260510070448 | 17 | 123 | 3.2 | 3.2 | 0.00 | 0.00 | 0.00 | 99 | 1016.6 |
| 20260510065943 | 17 | 119 | 3.2 | 4.8 | 0.05 | 0.00 | 0.00 | 99 | 1016.8 |
| 20260510065440 | 17 | 123 | 3.2 | 4.8 | 0.05 | 0.00 | 0.00 | 99 | 1016.7 |
| 20260510064936 | 17 | 120 | 1.6 | 3.2 | 0.00 | 0.00 | 0.00 | 99 | 1016.6 |
| 20260510064434 | 17 | 120 | 3.2 | 3.2 | 0.00 | 0.00 | 0.00 | 99 | 1016.7 |
| 20260510063930 | 17 | 120 | 1.6 | 3.2 | 0.00 | 0.00 | 0.00 | 99 | 1016.7 |
| 20260510063426 | 17 | 106 | 3.2 | 3.2 | 0.00 | 0.00 | 0.00 | 99 | 1016.8 |
| 20260510062924 | 17 | 114 | 0.0 | 1.6 | 0.00 | 0.00 | 0.00 | 99 | 1016.7 |
| 20260510062419 | 17 | 107 | 3.2 | 3.2 | 0.00 | 0.00 | 0.00 | 99 | 1016.7 |
| 20260510061915 | 17 | 145 | 0.0 | 3.2 | 0.00 | 0.00 | 0.00 | 99 | 1016.7 |
| 20260510061412 | 17 | 172 | 0.0 | 1.6 | 0.00 | 0.00 | 0.00 | 99 | 1016.8 |
| 20260510060908 | 17 | 120 | 0.0 | 3.2 | 0.00 | 0.00 | 0.00 | 99 | 1016.5 |
| 20260510060405 | 17 | 126 | 1.6 | 3.2 | 0.00 | 0.00 | 0.00 | 99 | 1016.7 |
| 20260510055901 | 17 | 128 | 3.2 | 3.2 | 0.00 | 0.00 | 0.00 | 99 | 1016.6 |
| 20260510055356 | 17 | 114 | 0.0 | 3.2 | 0.00 | 0.00 | 0.00 | 99 | 1016.8 |
| 20260510054854 | 18 | 169 | 0.0 | 3.2 | 0.00 | 0.00 | 0.00 | 99 | 1016.7 |
| 20260510054350 | 18 | 103 | 1.6 | 3.2 | 0.00 | 0.00 | 0.00 | 99 | 1016.6 |
| 20260510053845 | 18 | 106 | 0.0 | 1.6 | 0.00 | 0.00 | 0.00 | 99 | 1016.7 |
| 20260510053341 | 18 | 107 | 3.2 | 3.2 | 0.00 | 0.00 | 0.00 | 99 | 1016.8 |
| 20260510052838 | 18 | 115 | 3.2 | 4.8 | 0.00 | 0.00 | 0.00 | 99 | 1016.7 |
| 20260510052333 | 18 | 172 | 0.0 | 3.2 | 0.00 | 0.00 | 0.00 | 99 | 1016.8 |
| 20260510051830 | 18 | 115 | 3.2 | 4.8 | 0.00 | 0.00 | 0.00 | 99 | 1016.8 |
| 20260510051327 | 18 | 117 | 1.6 | 3.2 | 0.00 | 0.00 | 0.00 | 99 | 1016.8 |
| 20260510050824 | 18 | 132 | 3.2 | 4.8 | 0.00 | 0.00 | 0.00 | 99 | 1016.8 |
| 20260510050320 | 18 | 166 | 1.6 | 3.2 | 0.00 | 0.00 | 0.00 | 99 | 1016.8 |
| 20260510045817 | 18 | 180 | 1.6 | 3.2 | 0.00 | 1.14 | 1.14 | 99 | 1016.8 |
| 20260510045314 | 19 | 131 | 3.2 | 4.8 | 0.00 | 1.14 | 1.14 | 99 | 1016.9 |
| 20260510044811 | 19 | 123 | 3.2 | 3.2 | 0.00 | 1.14 | 1.14 | 99 | 1017.0 |
| 20260510044308 | 19 | 157 | 0.0 | 3.2 | 0.00 | 1.14 | 1.14 | 99 | 1016.9 |
| 20260510043804 | 19 | 180 | 0.0 | 3.2 | 0.00 | 1.14 | 1.14 | 99 | 1017.2 |
| 20260510043300 | 19 | 180 | 0.0 | 1.6 | 0.00 | 1.14 | 1.14 | 99 | 1017.2 |
| 20260510042758 | 19 | 124 | 3.2 | 4.8 | 0.00 | 1.14 | 1.14 | 99 | 1017.0 |
| 20260510042253 | 19 | 117 | 3.2 | 4.8 | 0.00 | 1.14 | 1.14 | 98 | 1017.1 |
| 20260510041750 | 19 | 114 | 1.6 | 3.2 | 0.00 | 1.14 | 1.14 | 98 | 1017.3 |
| 20260510041248 | 19 | 98 | 1.6 | 3.2 | 0.00 | 1.14 | 1.14 | 98 | 1017.2 |
| 20260510040745 | 19 | 131 | 3.2 | 3.2 | 0.00 | 1.14 | 1.14 | 99 | 1017.3 |
| 20260510040242 | 19 | 126 | 0.0 | 0.0 | 0.00 | 1.14 | 1.14 | 99 | 1017.2 |
| 20260510035737 | 19 | 113 | 3.2 | 4.8 | 0.00 | 1.14 | 1.14 | 99 | 1017.2 |
| 20260510035233 | 19 | 126 | 1.6 | 3.2 | 0.00 | 1.14 | 1.14 | 99 | 1017.0 |
| 20260510034729 | 19 | 180 | 0.0 | 3.2 | 0.00 | 1.14 | 1.14 | 99 | 1017.1 |
| 20260510034228 | 19 | 162 | 1.6 | 4.8 | 0.00 | 1.14 | 1.14 | 99 | 1017.3 |
| 20260510033723 | 19 | 180 | 1.6 | 3.2 | 0.00 | 1.14 | 1.14 | 99 | 1017.4 |
| 20260510033221 | 20 | 168 | 0.0 | 4.8 | 0.00 | 1.14 | 1.14 | 99 | 1017.3 |
| 20260510032717 | 20 | 132 | 3.2 | 4.8 | 0.00 | 1.14 | 1.14 | 98 | 1017.1 |
| 20260510032213 | 20 | 139 | 3.2 | 3.2 | 0.00 | 1.14 | 1.14 | 99 | 1017.1 |
| 20260510031708 | 20 | 129 | 3.2 | 3.2 | 0.00 | 1.14 | 1.14 | 99 | 1017.3 |
| 20260510031204 | 20 | 131 | 0.0 | 4.8 | 0.00 | 1.14 | 1.14 | 99 | 1017.4 |
| 20260510030703 | 20 | 121 | 3.2 | 4.8 | 0.00 | 1.14 | 1.14 | 98 | 1017.3 |
| 20260510030202 | 20 | 170 | 3.2 | 3.2 | 0.00 | 1.14 | 1.14 | 98 | 1017.2 |
| 20260510025659 | 20 | 140 | 0.0 | 4.8 | 0.00 | 1.14 | 1.14 | 98 | 1017.3 |
| 20260510025156 | 20 | 132 | 3.2 | 6.4 | 0.00 | 1.14 | 1.14 | 98 | 1017.4 |
| 20260510024653 | 20 | 106 | 3.2 | 4.8 | 0.00 | 1.14 | 1.14 | 98 | 1017.4 |
| 20260510024149 | 20 | 135 | 3.2 | 4.8 | 0.00 | 1.14 | 1.14 | 98 | 1017.5 |
| 20260510023645 | 20 | 130 | 4.8 | 4.8 | 0.00 | 1.14 | 1.14 | 98 | 1017.2 |
| 20260510023143 | 20 | 157 | 0.0 | 4.8 | 0.00 | 1.14 | 1.14 | 98 | 1017.2 |
| 20260510022637 | 20 | 144 | 3.2 | 4.8 | 0.00 | 1.14 | 1.14 | 98 | 1017.1 |
| 20260510022133 | 20 | 132 | 0.0 | 4.8 | 0.00 | 1.14 | 1.14 | 98 | 1016.8 |
| 20260510021628 | 20 | 173 | 0.0 | 4.8 | 0.00 | 1.14 | 1.14 | 98 | 1016.7 |
| 20260510021126 | 20 | 135 | 0.0 | 4.8 | 0.00 | 1.14 | 1.14 | 98 | 1016.7 |
| 20260510020620 | 20 | 150 | 0.0 | 8.0 | 0.00 | 1.14 | 1.14 | 98 | 1016.8 |
| 20260510020115 | 20 | 173 | 1.6 | 6.4 | 0.00 | 1.14 | 1.14 | 98 | 1016.7 |
| 20260510015612 | 20 | 130 | 6.4 | 6.4 | 0.00 | 1.14 | 1.14 | 98 | 1016.5 |
| 20260510015108 | 20 | 127 | 4.8 | 6.4 | 0.00 | 1.14 | 1.14 | 99 | 1016.5 |
| 20260510014604 | 20 | 124 | 4.8 | 6.4 | 0.00 | 1.14 | 1.14 | 99 | 1016.3 |
| 20260510014102 | 21 | 124 | 3.2 | 4.8 | 0.00 | 1.14 | 1.14 | 99 | 1016.3 |
| 20260510013556 | 21 | 135 | 3.2 | 3.2 | 0.00 | 1.14 | 1.14 | 99 | 1016.1 |
| 20260510013052 | 21 | 132 | 3.2 | 3.2 | 0.00 | 1.14 | 1.14 | 99 | 1016.2 |
| 20260510012551 | 21 | 172 | 0.0 | 3.2 | 0.00 | 1.14 | 1.14 | 99 | 1016.0 |
| 20260510012048 | 21 | 142 | 3.2 | 4.8 | 0.00 | 1.14 | 1.14 | 99 | 1015.7 |
| 20260510011547 | 21 | 120 | 1.6 | 4.8 | 0.00 | 1.14 | 1.14 | 99 | 1015.6 |
| 20260510011044 | 21 | 143 | 3.2 | 3.2 | 0.00 | 1.14 | 1.14 | 99 | 1015.6 |
| 20260510010540 | 21 | 90 | 0.0 | 3.2 | 0.00 | 1.14 | 1.14 | 99 | 1015.4 |
| 20260510010038 | 21 | 142 | 3.2 | 3.2 | 0.00 | 1.14 | 1.14 | 98 | 1015.3 |
| 20260510005533 | 21 | 157 | 1.6 | 3.2 | 0.00 | 1.14 | 1.14 | 98 | 1015.6 |
| 20260510005031 | 21 | 145 | 0.0 | 3.2 | 0.00 | 1.14 | 1.14 | 98 | 1015.2 |
| 20260510004528 | 21 | 135 | 3.2 | 3.2 | 0.00 | 1.14 | 1.14 | 97 | 1015.3 |
| 20260510004027 | 21 | 172 | 0.0 | 3.2 | 0.00 | 1.14 | 1.14 | 97 | 1015.2 |
| 20260510003523 | 21 | 140 | 0.0 | 3.2 | 0.00 | 1.14 | 1.14 | 97 | 1015.2 |
| 20260510003018 | 21 | 172 | 0.0 | 3.2 | 0.00 | 1.14 | 1.14 | 97 | 1015.3 |
| 20260510002514 | 22 | 126 | 0.0 | 3.2 | 0.00 | 1.14 | 1.14 | 97 | 1014.9 |
| 20260510002011 | 22 | 131 | 0.0 | 3.2 | 0.00 | 1.14 | 1.14 | 97 | 1015.0 |
| 20260510001509 | 22 | 131 | 3.2 | 3.2 | 0.00 | 1.14 | 1.14 | 96 | 1015.0 |
| 20260510001007 | 22 | 145 | 0.0 | 3.2 | 0.00 | 1.14 | 1.14 | 96 | 1015.0 |
| 20260510000507 | 22 | 145 | 0.0 | 3.2 | 0.00 | 1.14 | 1.14 | 96 | 1014.9 |
| 20260510000004 | 22 | 125 | 3.2 | 3.2 | 0.00 | 1.14 | 1.14 | 95 | 1014.9 |
| 20260509235501 | 22 | 140 | 0.0 | 3.2 | 0.00 | 1.14 | 1.14 | 95 | 1014.9 |
| 20260509234957 | 22 | 131 | 0.0 | 3.2 | 0.00 | 1.14 | 1.14 | 94 | 1014.7 |
| 20260509234454 | 22 | 120 | 0.0 | 3.2 | 0.00 | 1.14 | 1.14 | 94 | 1014.8 |
| 20260509233952 | 22 | 123 | 3.2 | 3.2 | 0.00 | 1.14 | 1.14 | 94 | 1014.7 |
| 20260509233449 | 22 | 126 | 0.0 | 3.2 | 0.00 | 1.14 | 1.14 | 94 | 1014.7 |
| 20260509232945 | 22 | 135 | 0.0 | 3.2 | 0.00 | 1.14 | 1.14 | 94 | 1014.7 |
| 20260509232443 | 22 | 81 | 0.0 | 3.2 | 0.00 | 1.14 | 1.14 | 94 | 1014.7 |
| 20260509231938 | 22 | 139 | 3.2 | 3.2 | 0.00 | 1.14 | 1.14 | 94 | 1014.6 |
| 20260509231435 | 22 | 123 | 0.0 | 3.2 | 0.00 | 1.14 | 1.14 | 94 | 1014.6 |
| 20260509230934 | 22 | 126 | 0.0 | 3.2 | 0.00 | 1.14 | 1.14 | 94 | 1014.5 |
| 20260509230430 | 22 | 132 | 3.2 | 3.2 | 0.00 | 1.14 | 1.14 | 93 | 1014.7 |
| 20260509225926 | 22 | 125 | 3.2 | 3.2 | 0.00 | 1.14 | 1.14 | 92 | 1014.6 |
| 20260509225423 | 22 | 117 | 1.6 | 3.2 | 0.00 | 1.14 | 1.14 | 92 | 1014.5 |
| 20260509224919 | 22 | 279 | 0.0 | 1.6 | 0.00 | 1.14 | 1.14 | 91 | 1014.6 |
| 20260509224414 | 23 | 123 | 3.2 | 3.2 | 0.00 | 1.14 | 1.14 | 92 | 1014.4 |
| 20260509223912 | 23 | 103 | 0.0 | 1.6 | 0.00 | 1.14 | 1.14 | 91 | 1014.4 |
| 20260509223408 | 23 | 99 | 0.0 | 0.0 | 0.00 | 1.14 | 1.14 | 90 | 1014.3 |
| 20260509222905 | 23 | 106 | 0.0 | 4.8 | 0.00 | 1.14 | 1.14 | 90 | 1014.1 |
| 20260509222401 | 23 | 26 | 0.0 | 3.2 | 0.00 | 1.14 | 1.14 | 89 | 1014.1 |
| 20260509221856 | 23 | 23 | 0.0 | 3.2 | 0.00 | 1.14 | 1.14 | 89 | 1014.0 |
| 20260509221354 | 23 | 90 | 0.0 | 3.2 | 0.00 | 1.14 | 1.14 | 89 | 1014.2 |
| 20260509220849 | 23 | 126 | 0.0 | 3.2 | 0.00 | 1.14 | 1.14 | 90 | 1014.1 |
| 20260509220345 | 23 | 117 | 4.8 | 4.8 | 0.00 | 1.14 | 1.14 | 89 | 1014.2 |
| 20260509215841 | 23 | 114 | 1.6 | 3.2 | 0.00 | 1.14 | 1.14 | 89 | 1014.5 |
| 20260509215337 | 23 | 20 | 0.0 | 3.2 | 0.00 | 1.14 | 1.14 | 89 | 1014.3 |
| 20260509214835 | 23 | 315 | 3.2 | 4.8 | 0.00 | 1.14 | 1.14 | 89 | 1014.2 |
| 20260509214332 | 22 | 66 | 0.0 | 6.4 | 0.00 | 1.14 | 1.14 | 88 | 1014.2 |
| 20260509213829 | 23 | 3 | 3.2 | 4.8 | 0.00 | 1.14 | 1.14 | 88 | 1014.3 |
| 20260509213324 | 23 | 5 | 4.8 | 8.0 | 0.00 | 1.14 | 1.14 | 89 | 1014.2 |
| 20260509212822 | 23 | 346 | 4.8 | 8.0 | 0.00 | 1.14 | 1.14 | 87 | 1014.1 |
| 20260509212320 | 23 | 0 | 0.0 | 4.8 | 0.00 | 1.14 | 1.14 | 86 | 1014.1 |
| 20260509211815 | 24 | 82 | 1.6 | 4.8 | 0.00 | 1.14 | 1.14 | 85 | 1014.0 |
| 20260509211311 | 24 | 114 | 0.0 | 3.2 | 0.00 | 1.14 | 1.14 | 83 | 1014.1 |
| 20260509210808 | 24 | 90 | 0.0 | 3.2 | 0.00 | 1.14 | 1.14 | 85 | 1014.2 |
| 20260509210306 | 23 | 5 | 0.0 | 3.2 | 0.00 | 1.14 | 1.14 | 83 | 1014.0 |
| 20260509205805 | 23 | 23 | 1.6 | 3.2 | 0.00 | 1.14 | 1.14 | 84 | 1014.1 |
| 20260509205300 | 24 | 103 | 3.2 | 4.8 | 0.00 | 1.14 | 1.14 | 85 | 1014.2 |
| 20260509204756 | 24 | 117 | 1.6 | 4.8 | 0.00 | 1.14 | 1.14 | 88 | 1014.4 |
| 20260509204252 | 24 | 354 | 1.6 | 1.6 | 0.00 | 1.14 | 1.14 | 84 | 1014.4 |
| 20260509203749 | 23 | 90 | 0.0 | 3.2 | 0.00 | 1.14 | 1.14 | 86 | 1014.6 |
| 20260509203247 | 23 | 234 | 0.0 | 1.6 | 0.00 | 1.14 | 1.14 | 85 | 1014.5 |
| 20260509202742 | 23 | 233 | 0.0 | 3.2 | 0.00 | 1.14 | 1.14 | 85 | 1014.6 |
| 20260509202238 | 24 | 81 | 0.0 | 1.6 | 0.00 | 1.14 | 1.14 | 85 | 1014.6 |
| 20260509201733 | 23 | 0 | 3.2 | 6.4 | 0.00 | 1.14 | 1.14 | 84 | 1014.6 |
| 20260509201230 | 24 | 41 | 3.2 | 4.8 | 0.00 | 1.14 | 1.14 | 85 | 1014.5 |
| 20260509200726 | 23 | 49 | 0.0 | 4.8 | 0.00 | 1.14 | 1.14 | 87 | 1014.7 |
| 20260509200221 | 24 | 66 | 1.6 | 4.8 | 0.00 | 1.14 | 1.14 | 86 | 1014.8 |
| 20260509195717 | 23 | 264 | 3.2 | 4.8 | 0.00 | 1.14 | 1.14 | 84 | 1014.9 |
| 20260509195212 | 23 | 6 | 1.6 | 6.4 | 0.00 | 1.14 | 1.14 | 87 | 1014.9 |
| 20260509194707 | 23 | 319 | 3.2 | 3.2 | 0.00 | 1.14 | 1.14 | 87 | 1014.9 |
| 20260509194204 | 23 | 351 | 0.0 | 4.8 | 0.00 | 1.14 | 1.14 | 86 | 1014.9 |
| 20260509193700 | 23 | 203 | 0.0 | 0.0 | 0.00 | 1.14 | 1.14 | 86 | 1014.9 |
| 20260509193155 | 23 | 15 | 0.0 | 4.8 | 0.00 | 1.14 | 1.14 | 88 | 1015.0 |
| 20260509192652 | 22 | 327 | 4.8 | 4.8 | 0.00 | 1.14 | 1.14 | 87 | 1014.9 |
| 20260509192147 | 23 | 10 | 4.8 | 4.8 | 0.00 | 1.14 | 1.14 | 87 | 1014.9 |
| 20260509191647 | 22 | 342 | 1.6 | 6.4 | 0.00 | 1.14 | 1.14 | 88 | 1014.9 |
| 20260509191144 | 23 | 310 | 4.8 | 4.8 | 0.00 | 1.14 | 1.14 | 86 | 1014.7 |
| 20260509190640 | 22 | 188 | 0.0 | 4.8 | 0.00 | 1.14 | 1.14 | 87 | 1014.8 |
| 20260509190138 | 22 | 151 | 0.0 | 3.2 | 0.00 | 1.14 | 1.14 | 89 | 1014.8 |
| 20260509185636 | 22 | 128 | 3.2 | 4.8 | 0.00 | 1.14 | 1.14 | 90 | 1014.9 |
| 20260509185131 | 22 | 168 | 1.6 | 4.8 | 0.00 | 1.14 | 1.14 | 89 | 1015.1 |
| 20260509184629 | 22 | 106 | 0.0 | 1.6 | 0.00 | 1.14 | 1.14 | 91 | 1014.9 |
| 20260509184126 | 21 | 0 | 0.0 | 3.2 | 0.00 | 1.14 | 1.14 | 91 | 1015.1 |
| 20260509183622 | 22 | 21 | 4.8 | 6.4 | 0.00 | 1.14 | 1.14 | 91 | 1015.2 |
| 20260509183117 | 21 | 132 | 3.2 | 3.2 | 0.00 | 1.14 | 1.14 | 91 | 1015.4 |
| 20260509182614 | 21 | 114 | 0.0 | 1.6 | 0.00 | 1.14 | 1.14 | 92 | 1015.2 |
| 20260509182111 | 21 | 311 | 3.2 | 3.2 | 0.00 | 1.14 | 1.14 | 92 | 1015.3 |
| 20260509181609 | 21 | 0 | 0.0 | 4.8 | 0.00 | 1.14 | 1.14 | 92 | 1015.3 |
| 20260509181106 | 21 | 312 | 3.2 | 3.2 | 0.00 | 1.14 | 1.14 | 92 | 1015.4 |
| 20260509180603 | 21 | 342 | 1.6 | 4.8 | 0.00 | 1.14 | 1.14 | 91 | 1015.6 |
| 20260509180100 | 21 | 0 | 1.6 | 3.2 | 0.00 | 1.14 | 1.14 | 91 | 1015.7 |
| 20260509175555 | 21 | 294 | 1.6 | 3.2 | 0.00 | 1.14 | 1.14 | 91 | 1015.6 |
| 20260509175052 | 22 | 15 | 0.0 | 0.0 | 0.00 | 1.14 | 1.14 | 90 | 1015.4 |
| 20260509174548 | 21 | 32 | 0.0 | 4.8 | 0.00 | 1.14 | 1.14 | 91 | 1015.6 |
| 20260509174043 | 22 | 356 | 3.2 | 4.8 | 0.00 | 1.14 | 1.14 | 92 | 1015.5 |
| 20260509173538 | 22 | 8 | 0.0 | 3.2 | 0.00 | 1.14 | 1.14 | 90 | 1015.7 |
| 20260509173034 | 21 | 131 | 3.2 | 4.8 | 0.00 | 1.14 | 1.14 | 91 | 1015.7 |
| 20260509172532 | 22 | 114 | 0.0 | 4.8 | 0.00 | 1.14 | 1.14 | 93 | 1015.7 |
| 20260509172027 | 21 | 96 | 3.2 | 4.8 | 0.00 | 1.14 | 1.14 | 91 | 1015.9 |
| 20260509171523 | 21 | 188 | 0.0 | 3.2 | 0.00 | 1.14 | 1.14 | 93 | 1016.1 |
| 20260509171020 | 21 | 353 | 0.0 | 3.2 | 0.00 | 1.14 | 1.14 | 93 | 1016.3 |
| 20260509170516 | 21 | 206 | 0.0 | 4.8 | 0.00 | 1.14 | 1.14 | 95 | 1016.4 |
| 20260509170012 | 21 | 230 | 4.8 | 4.8 | 0.00 | 1.14 | 1.14 | 95 | 1016.5 |
| 20260509165510 | 21 | 5 | 1.6 | 3.2 | 0.00 | 1.14 | 1.14 | 97 | 1016.3 |
| 20260509165006 | 20 | 234 | 0.0 | 4.8 | 0.00 | 1.14 | 1.14 | 97 | 1016.5 |
| 20260509164503 | 20 | 238 | 8.0 | 8.0 | 0.00 | 1.14 | 1.14 | 98 | 1016.5 |
| 20260509163958 | 20 | 212 | 4.8 | 8.0 | 0.00 | 1.14 | 1.14 | 99 | 1016.7 |
| 20260509163456 | 20 | 243 | 3.2 | 6.4 | 0.00 | 1.14 | 1.14 | 99 | 1016.2 |
| 20260509162955 | 20 | 208 | 4.8 | 6.4 | 0.00 | 1.14 | 1.14 | 99 | 1016.5 |
| 20260509162454 | 19 | 214 | 4.8 | 4.8 | 0.00 | 1.14 | 1.14 | 99 | 1016.6 |
| 20260509161949 | 20 | 210 | 3.2 | 4.8 | 0.00 | 1.14 | 1.14 | 99 | 1016.4 |
| 20260509161446 | 20 | 195 | 3.2 | 4.8 | 0.00 | 1.14 | 1.14 | 99 | 1016.1 |
| 20260509160941 | 19 | 209 | 1.6 | 6.4 | 0.00 | 1.14 | 1.14 | 99 | 1016.1 |
| 20260509160438 | 19 | 246 | 1.6 | 6.4 | 0.00 | 1.14 | 1.14 | 99 | 1016.1 |
| 20260509155933 | 19 | 225 | 0.0 | 6.4 | 0.00 | 1.14 | 1.14 | 99 | 1016.0 |
| 20260509155430 | 19 | 261 | 0.0 | 4.8 | 0.00 | 1.14 | 1.14 | 99 | 1016.3 |
| 20260509154926 | 18 | 126 | 0.0 | 0.0 | 0.00 | 1.14 | 1.14 | 99 | 1016.3 |
| 20260509154422 | 18 | 165 | 0.0 | 3.2 | 0.00 | 1.14 | 1.14 | 99 | 1016.4 |
| 20260509153920 | 18 | 106 | 1.6 | 1.6 | 0.00 | 1.14 | 1.14 | 99 | 1016.5 |
| 20260509153416 | 18 | 63 | 1.6 | 3.2 | 0.00 | 1.14 | 1.14 | 99 | 1016.5 |
| 20260509152913 | 18 | 180 | 1.6 | 4.8 | 0.00 | 1.14 | 1.14 | 99 | 1016.5 |
| 20260509152409 | 18 | 106 | 0.0 | 4.8 | 0.00 | 1.14 | 1.14 | 99 | 1016.4 |
| 20260509151907 | 18 | 127 | 3.2 | 3.2 | 0.00 | 1.14 | 1.14 | 99 | 1016.5 |
| 20260509151402 | 18 | 117 | 1.6 | 3.2 | 0.00 | 1.14 | 1.14 | 99 | 1016.2 |
| 20260509150901 | 18 | 121 | 3.2 | 4.8 | 0.00 | 1.14 | 1.14 | 99 | 1016.3 |
| 20260509150358 | 18 | 148 | 3.2 | 3.2 | 0.00 | 1.14 | 1.14 | 99 | 1016.3 |
| 20260509145856 | 18 | 180 | 1.6 | 3.2 | 0.00 | 1.14 | 1.14 | 99 | 1016.3 |
| 20260509145350 | 18 | 81 | 0.0 | 4.8 | 0.00 | 1.14 | 1.14 | 99 | 1016.2 |
| 20260509144847 | 18 | 127 | 3.2 | 4.8 | 0.00 | 1.14 | 1.14 | 99 | 1016.3 |
| 20260509144344 | 18 | 110 | 3.2 | 4.8 | 0.00 | 1.14 | 1.14 | 99 | 1016.5 |
| 20260509143841 | 18 | 131 | 4.8 | 4.8 | 0.00 | 1.14 | 1.14 | 99 | 1016.4 |
| 20260509143338 | 18 | 125 | 4.8 | 4.8 | 0.00 | 1.14 | 1.14 | 99 | 1015.9 |
| 20260509142834 | 18 | 123 | 3.2 | 3.2 | 0.00 | 1.14 | 1.14 | 99 | 1015.9 |
| 20260509142331 | 18 | 112 | 3.2 | 4.8 | 0.00 | 1.14 | 1.14 | 99 | 1015.8 |
| 20260509141826 | 18 | 90 | 0.0 | 3.2 | 0.00 | 1.14 | 1.14 | 99 | 1015.8 |
| 20260509141328 | 18 | 117 | 0.0 | 4.8 | 0.00 | 1.14 | 1.14 | 99 | 1015.5 |
| 20260509140820 | 18 | 160 | 1.6 | 3.2 | 0.00 | 1.14 | 1.14 | 99 | 1015.4 |
| 20260509140317 | 18 | 114 | 0.0 | 1.6 | 0.00 | 1.14 | 1.14 | 99 | 1015.4 |
| 20260509135815 | 18 | 101 | 3.2 | 3.2 | 0.00 | 1.14 | 1.14 | 99 | 1015.5 |
| 20260509135312 | 18 | 186 | 1.6 | 1.6 | 0.00 | 1.14 | 1.14 | 99 | 1015.3 |
| 20260509134809 | 18 | 123 | 0.0 | 3.2 | 0.00 | 1.14 | 1.14 | 99 | 1015.2 |
| 20260509134307 | 18 | 95 | 3.2 | 4.8 | 0.00 | 1.14 | 1.14 | 99 | 1015.1 |
| 20260509133804 | 17 | 82 | 0.0 | 1.6 | 0.00 | 1.14 | 1.14 | 99 | 1015.2 |
| 20260509133300 | 17 | 172 | 0.0 | 1.6 | 0.00 | 1.14 | 1.14 | 99 | 1015.1 |
| 20260509132759 | 17 | 180 | 0.0 | 3.2 | 0.00 | 1.14 | 1.14 | 99 | 1015.1 |
| 20260509132257 | 17 | 188 | 0.0 | 3.2 | 0.00 | 1.14 | 1.14 | 99 | 1015.3 |
| 20260509131753 | 17 | 114 | 3.2 | 3.2 | 0.00 | 1.14 | 1.14 | 99 | 1015.3 |
| 20260509131250 | 17 | 180 | 1.6 | 3.2 | 0.00 | 1.14 | 1.14 | 99 | 1015.1 |
| 20260509130746 | 17 | 166 | 0.0 | 3.2 | 0.00 | 1.14 | 1.14 | 99 | 1015.0 |
| 20260509130242 | 17 | 180 | 1.6 | 3.2 | 0.00 | 1.14 | 1.14 | 99 | 1014.9 |
| 20260509125739 | 17 | 120 | 3.2 | 3.2 | 0.00 | 1.14 | 1.14 | 99 | 1014.6 |
| 20260509125236 | 17 | 66 | 0.0 | 1.6 | 0.00 | 1.14 | 1.14 | 99 | 1014.7 |
| 20260509124732 | 17 | 96 | 1.6 | 3.2 | 0.00 | 1.14 | 1.14 | 99 | 1014.6 |
| 20260509124229 | 17 | 105 | 1.6 | 3.2 | 0.00 | 1.14 | 1.14 | 99 | 1014.3 |
| 20260509123727 | 17 | 154 | 0.0 | 3.2 | 0.00 | 1.14 | 1.14 | 99 | 1014.1 |
| 20260509123224 | 17 | 157 | 0.0 | 3.2 | 0.00 | 1.14 | 1.14 | 99 | 1014.1 |
| 20260509122720 | 17 | 180 | 1.6 | 6.4 | 0.00 | 1.14 | 1.14 | 99 | 1014.0 |
| 20260509122216 | 17 | 140 | 4.8 | 4.8 | 0.05 | 1.14 | 1.14 | 99 | 1013.8 |
| 20260509121713 | 17 | 127 | 6.4 | 8.0 | 0.13 | 1.12 | 1.12 | 99 | 1014.0 |
| 20260509121211 | 17 | 180 | 0.0 | 4.8 | 0.13 | 1.12 | 1.12 | 99 | 1013.7 |
| 20260509120709 | 17 | 314 | 6.4 | 17.7 | 0.00 | 1.09 | 1.09 | 99 | 1013.8 |
| 20260509120207 | 17 | 54 | 1.6 | 6.4 | 0.18 | 1.09 | 1.09 | 99 | 1012.4 |
| 20260509115704 | 17 | 126 | 0.0 | 4.8 | 0.18 | 1.09 | 1.09 | 99 | 1012.7 |
| 20260509115201 | 17 | 108 | 6.4 | 6.4 | 0.13 | 1.07 | 1.07 | 99 | 1013.9 |
| 20260509114659 | 17 | 154 | 0.0 | 4.8 | 0.23 | 1.04 | 1.04 | 99 | 1014.2 |
| 20260509114158 | 17 | 102 | 3.2 | 6.4 | 0.18 | 1.04 | 1.04 | 99 | 1014.4 |
| 20260509113656 | 17 | 110 | 3.2 | 3.2 | 0.13 | 1.02 | 1.02 | 99 | 1014.4 |
| 20260509113153 | 17 | 119 | 3.2 | 6.4 | 0.23 | 0.99 | 0.99 | 99 | 1014.3 |
| 20260509112649 | 17 | 149 | 4.8 | 6.4 | 0.30 | 0.99 | 0.99 | 99 | 1014.7 |
| 20260509112147 | 17 | 119 | 3.2 | 4.8 | 0.23 | 0.97 | 0.97 | 99 | 1014.9 |
| 20260509111644 | 17 | 176 | 3.2 | 4.8 | 0.23 | 0.94 | 0.94 | 99 | 1014.9 |
| 20260509111140 | 17 | 169 | 3.2 | 4.8 | 0.30 | 0.91 | 0.91 | 99 | 1014.8 |
| 20260509110638 | 17 | 114 | 4.8 | 4.8 | 0.36 | 0.89 | 0.89 | 99 | 1014.6 |
| 20260509110135 | 17 | 264 | 0.0 | 4.8 | 0.30 | 0.86 | 0.86 | 99 | 1014.0 |
| 20260509105633 | 17 | 106 | 3.2 | 3.2 | 0.23 | 0.84 | 0.84 | 99 | 1013.3 |
| 20260509105130 | 17 | 90 | 0.0 | 3.2 | 0.23 | 0.81 | 0.81 | 99 | 1013.6 |